Torna al catalogo

FOSSASAT2E18

TAT-A

AttivoComunicazioniSSO
NORAD 62686·PAYLOAD·🇪🇸 Spain

Lanciato Jan 14, 2025 da Vandenberg Space Force Base

Loading…

Prossimi Passaggi (prossime 24 ore)

TLE

AggiornatoSource: Space-Track

Epoca: Sep 14, 2026, 04:39 UTC

1 62686U 25009CF  26257.19393758  .00002014  00000-0  92739-4 0  9992
2 62686  97.3914 333.9398 0006805  38.1416 322.0301 15.21429939 92224

Traccia FOSSASAT2E18 in tempo reale con AllMySat

Download on the App Store